Tracking 29782 objects as of 13-Oct-2024
HD Live streaming from Space Station
objects crossing your sky now

OSCAR 27

Track OSCAR 27 now!
10-day predictions
OSCAR 27 is classified as:


NORAD ID: 18361
Int'l Code: 1987-080A
Perigee: 1,020.9 km
Apogee: 1,176.4 km
Inclination: 90.4 °
Period: 107.1 minutes
Semi major axis: 7469 km
RCS: 1.5699 m2 (large)
Launch date: September 16, 1987
Source: United States (US)
Launch site: AIR FORCE WESTERN TEST RANGE (AFWTR)
Your satellite tracking list
Your tracking list is empty




NASA's NSSDC Master Catalog

Two Line Element Set (TLE):
1 18361U 87080A   24286.44732653  .00000294  00000-0  47344-3 0  9998
2 18361  90.3640  63.5995 0104034   6.6649 353.5854 13.44783029818273
Source of the keplerian elements: AFSPC